Temperature
20 21 21 21 21 20 20 19 19 20 19 19 19 18 19 19 19 19 19 20 20 20 20 20 20 19 19 19 19 18 18 18 18 18 17 17 17 17 16 16 16 16 16 15
21 21 21 21 21 21 21 20 19 20 19 19 19 19 19 19 19 19 19 20 20 20 20 20 19 19 19 19 18 18 18 18 18 17 17 17 17 16 16 16 16 16 15 15
19 20 21 20 20 20 20 20 19 20 19 18 18 18 18 19 19 19 20 20 20 20 20 20 19 19 19 19 18 18 18 18 17 17 17 16 16 16 16 16 16 15 15 15
17 20 20 20 20 20 20 20 19 19 18 18 18 19 19 20 20 20 20 20 20 20 20 19 19 19 19 18 18 18 17 17 17 17 16 16 16 16 16 16 15 15 15 15
15 18 19 19 20 19 19 19 19 18 18 18 18 18 19 20 20 21 21 20 20 20 19 19 19 18 18 18 18 17 17 17 17 17 16 16 16 16 16 15 15 15 15 15
15 18 18 19 20 20 19 19 19 18 17 17 18 17 18 20 20 20 20 20 20 19 19 19 18 18 18 17 17 17 17 17 16 16 16 16 16 16 15 15 15 15 15 14
15 17 17 18 19 19 19 19 19 19 18 17 17 18 20 20 20 20 20 20 19 19 19 18 18 17 17 17 17 16 16 16 16 16 15 15 15 15 15 15 15 15 15 14
14 16 17 18 18 18 18 19 19 19 19 18 19 19 19 20 20 20 19 19 19 19 18 18 17 17 17 17 17 16 16 16 16 15 15 15 15 15 15 15 14 14 14 14
14 16 16 17 18 19 19 18 19 19 19 19 19 19 19 19 19 19 19 19 19 18 18 18 17 17 17 16 16 16 16 15 15 15 15 15 14 14 14 14 14 14 14 14
13 15 16 17 18 19 19 19 19 19 19 19 19 19 19 18 18 18 18 18 18 18 18 17 17 17 16 16 16 16 16 15 15 15 14 14 14 14 14 14 14 14 13 13
13 14 16 17 18 18 19 19 19 19 19 19 19 18 18 18 18 18 18 17 17 17 17 17 17 16 16 16 16 15 15 15 15 14 14 14 14 14 13 13 13 13 13 13
14 15 14 16 17 18 18 18 19 19 18 18 18 18 18 18 18 18 17 17 17 17 17 16 16 16 16 15 15 15 15 15 14 14 14 14 14 13 13 13 13 13 13 13
16 16 16 16 17 17 17 18 18 18 18 18 18 18 17 17 17 17 17 17 17 16 16 16 16 15 15 15 15 14 14 14 14 14 14 13 13 13 13 13 13 13 13 13
16 16 16 16 16 17 17 17 17 17 17 17 17 17 17 17 17 16 17 16 16 16 16 16 15 15 15 15 14 14 14 14 14 13 13 13 13 13 13 13 13 13 13 13
16 16 16 16 16 16 16 17 17 17 17 17 17 17 17 16 16 16 16 16 16 16 16 15 15 15 14 14 14 14 14 14 13 13 13 13 13 13 13 13 13 13 13 13
15 15 15 15 16 16 16 16 16 16 16 16 16 16 16 16 16 16 16 16 15 15 15 15 15 14 14 14 14 14 14 13 13 13 13 13 13 13 13 13 12 12 12 12
14 14 14 15 15 15 15 15 15 15 16 16 16 16 16 15 15 15 15 15 15 15 15 14 14 14 14 14 13 13 13 13 13 13 13 13 13 13 13 12 12 12 12 12
14 14 14 14 14 15 15 15 15 15 15 15 15 15 15 15 15 15 15 15 15 14 14 14 14 14 14 14 13 13 13 13 13 13 12 12 12 12 12 12 12 12 12 12
14 14 14 14 14 14 15 15 15 15 15 15 15 15 15 15 15 14 14 14 14 14 14 14 14 14 14 13 13 13 13 12 12 12 12 12 12 12 12 12 12 12 12 12
14 14 14 14 14 14 14 14 15 15 15 15 15 15 15 14 14 14 14 14 14 14 14 14 13 13 13 13 13 13 12 12 12 12 12 12 12 12 12 12 12 11 11 11
14 14 14 14 14 14 14 14 14 14 14 14 14 14 14 14 14 14 14 14 14 14 14 13 13 13 13 13 12 12 12 12 12 12 12 12 11 11 11 11 11 11 11 11
13 13 13 13 13 13 13 13 13 13 14 14 14 14 14 14 14 14 14 13 13 13 13 13 13 13 13 12 12 12 12 12 12 12 12 11 11 11 11 11 11 11 10 10
13 13 13 13 12 12 12 13 13 13 13 13 13 13 13 13 13 13 13 13 13 13 13 13 13 12 12 12 12 12 12 12 12 11 11 11 11 11 11 10 10 10 10 10
12 12 12 12 12 12 12 12 12 12 13 13 13 13 13 13 13 13 13 13 13 13 13 12 12 12 12 12 12 12 12 11 11 11 11 11 10 10 10 10 10 10 10 9
12 12 12 12 12 11 12 12 12 12 12 13 13 13 12 12 12 12 12 12 12 12 12 12 12 12 12 12 11 11 11 11 11 11 10 10 10 10 10 10 10 9 9 9
11 11 11 11 11 11 11 12 12 12 12 12 12 12 12 12 12 12 12 12 12 12 12 12 12 12 11 11 11 11 11 11 11 10 10 10 10 10 9 9 9 9 9 9
11 11 11 11 11 11 11 11 11 11 11 12 12 12 12 12 12 12 11 11 11 11 11 11 11 11 11 11 11 11 10 10 10 10 10 10 9 9 9 9 9 9 8 8
Wind_Speed
4 4 4 3 4 5 6 7 8 8 8 8 7 5 4 3 2 4 4 4 5 5 4 3 3 3 3 3 3 4 5 5 5 4 4 3 3 3 3 3 4 3 2 3
2 1 2 2 4 5 5 5 5 3 6 6 3 2 3 4 4 5 5 5 5 5 5 5 4 4 3 4 4 4 4 5 4 3 3 3 3 3 3 3 3 2 3 3
3 3 2 3 4 5 3 3 5 6 6 3 2 4 5 5 5 5 6 6 6 6 6 6 5 5 5 5 4 4 4 3 3 3 3 4 4 3 3 3 3 3 3 3
2 2 5 7 2 3 3 2 3 3 3 5 5 3 2 3 4 4 4 5 5 5 5 4 4 3 3 4 4 4 4 3 3 3 4 3 2 3 3 3 3 3 3 4
4 3 5 6 2 3 4 3 2 3 2 1 2 3 2 2 3 4 4 4 4 4 4 4 4 3 3 3 3 3 3 3 3 3 3 3 3 4 3 3 3 3 2 3
4 4 6 7 3 2 4 3 4 4 4 3 4 2 4 3 2 2 2 2 3 3 3 3 3 4 4 3 2 3 4 3 2 3 3 4 4 4 2 2 3 2 2 2
4 4 6 6 3 2 4 6 3 3 5 6 5 6 4 2 2 3 3 2 3 3 3 4 4 5 4 3 4 4 3 2 1 2 4 4 3 2 2 2 2 2 2 3
4 3 7 3 2 4 6 3 2 3 4 4 4 3 2 3 3 3 3 3 4 4 3 3 4 6 5 4 4 2 2 1 1 2 3 2 2 2 2 2 2 2 2 3
7 6 4 2 3 4 3 3 3 3 3 4 3 3 3 3 4 4 4 4 4 4 3 2 4 6 6 5 4 3 3 2 2 2 2 1 2 3 2 2 2 3 3 3
2 4 4 4 4 3 2 3 3 3 3 3 3 3 3 3 3 3 3 3 3 3 3 3 3 5 5 4 4 4 4 3 2 2 2 2 2 3 3 3 4 4 4 5
2 5 5 4 3 3 3 1 1 1 2 3 3 3 4 4 4 4 3 3 3 4 5 5 4 4 3 3 3 4 3 3 2 3 3 3 2 3 4 5 5 5 5 5
6 6 3 6 5 4 3 2 2 1 1 1 3 4 4 4 4 4 3 3 3 4 4 4 4 4 4 3 4 4 3 3 3 3 3 3 3 2 4 5 5 7 7 7
6 4 5 6 5 4 4 4 2 2 2 2 2 3 4 3 3 3 3 4 5 5 5 4 4 5 4 4 4 5 5 4 4 4 4 4 4 4 3 3 3 4 6 6
4 2 3 4 5 5 4 3 1 1 1 2 2 2 2 2 3 4 5 6 4 4 4 4 5 5 5 4 5 5 5 5 5 4 5 4 5 5 4 4 4 4 4 6
4 4 5 5 5 4 3 2 2 3 2 2 1 1 2 3 4 5 5 3 2 3 4 4 5 5 4 4 5 5 4 4 4 4 4 4 4 4 4 5 4 4 3 4
3 2 2 2 3 3 2 2 3 4 3 3 3 3 3 3 4 4 4 4 4 5 5 5 6 6 4 4 4 4 4 6 5 4 4 4 4 4 4 4 4 4 5 4
2 2 2 2 3 4 4 4 4 5 4 4 4 3 2 2 2 3 4 4 5 5 5 6 7 5 5 5 5 4 4 4 5 4 4 5 4 5 5 5 5 5 5 5
5 6 5 5 5 5 5 5 5 5 5 5 4 3 3 4 5 5 4 3 3 4 5 6 5 5 5 5 5 4 4 4 4 5 5 5 5 5 5 5 5 6 5 4
3 4 5 5 5 5 5 5 5 5 5 4 4 5 5 5 5 5 4 4 4 6 6 5 5 4 5 6 5 4 5 5 5 5 5 5 5 4 4 5 5 5 5 4
3 3 3 4 4 4 5 5 4 4 4 3 3 3 4 5 4 4 4 5 6 6 4 4 4 4 5 5 5 4 5 5 5 4 4 4 4 4 4 4 4 4 4 4
3 3 2 2 3 3 4 4 3 4 5 4 4 4 5 5 5 4 4 6 6 5 4 4 4 4 4 4 5 4 4 4 4 4 4 4 4 4 4 4 4 3 3 3
2 2 2 2 2 4 4 4 4 4 5 5 5 4 4 5 5 4 5 6 5 4 3 3 3 4 4 4 4 4 4 3 3 3 3 3 3 3 3 3 3 2 2 2
2 1 1 2 2 4 5 4 4 4 4 5 5 5 5 5 4 4 5 4 3 4 3 3 4 4 4 3 3 3 3 3 3 3 2 2 2 2 2 3 2 2 2 1
2 2 3 3 3 3 4 6 5 4 4 5 5 5 4 3 3 3 4 3 3 3 3 3 3 4 4 3 3 3 3 3 2 2 2 1 1 2 2 2 2 1 1 1
3 3 3 2 3 3 5 6 5 5 4 3 4 3 2 3 3 3 2 2 2 2 1 1 2 3 3 2 2 2 2 2 2 2 2 2 2 2 1 2 2 2 1 1
4 3 4 4 4 4 4 3 3 3 2 2 3 2 2 1 1 1 0 0 1 0 1 1 1 2 1 1 2 2 2 2 3 2 2 2 2 2 1 1 1 1 1 1
4 4 3 4 4 3 3 2 2 3 2 2 2 2 1 1 1 1 1 1 1 0 0 0 1 1 1 2 2 2 2 2 2 2 2 2 2 1 1 1 1 1 1 1
Wind_Direction
225 220 177 199 216 191 188 193 199 226 222 244 240 221 215 203 176 156 155 155 162 168 173 166 159 164 167 171 169 170 169 183 207 214 207 202 207 215 216 212 220 222 229 249
292 274 183 210 233 207 208 202 215 227 251 253 244 172 183 187 175 179 186 179 175 173 169 174 177 176 170 174 181 167 174 196 205 198 201 209 209 210 212 217 222 216 233 245
239 298 38 263 235 202 197 195 181 206 233 225 207 210 205 196 186 192 194 187 182 184 185 186 188 182 180 183 176 168 178 193 196 196 204 217 214 205 214 220 221 230 236 235
157 105 222 242 252 180 176 225 209 220 229 209 214 219 207 185 188 202 199 189 187 185 185 186 181 175 174 166 166 174 181 189 198 200 212 216 212 222 226 221 222 226 229 234
133 187 260 290 260 172 174 268 248 216 237 202 92 60 344 247 204 211 203 195 188 187 185 175 170 165 149 157 166 176 195 205 212 206 207 208 217 230 227 217 226 222 222 227
132 166 227 245 269 214 134 255 255 199 198 177 122 149 260 251 202 211 183 166 160 151 147 153 161 147 139 150 162 205 221 221 220 206 207 216 222 222 216 210 221 224 237 237
160 201 254 258 281 115 162 237 257 207 195 179 189 211 223 184 175 169 150 141 141 141 161 176 164 152 158 171 207 228 231 228 233 225 217 216 216 213 216 214 220 233 248 260
150 182 249 267 115 172 217 257 236 214 202 196 220 228 194 171 171 163 156 156 156 157 176 179 166 163 176 208 222 213 195 217 240 237 232 222 208 223 216 204 217 237 250 277
188 210 248 281 232 250 214 225 240 217 214 198 200 209 195 185 179 179 177 176 170 165 170 183 178 173 189 219 211 177 167 205 237 234 222 205 206 219 223 215 224 241 241 257
245 266 273 291 291 289 241 237 254 227 211 193 205 207 192 181 187 188 189 185 177 169 178 201 206 201 205 206 190 178 188 206 214 213 224 220 219 218 213 220 228 237 242 250
259 281 312 320 317 301 312 323 331 280 218 198 191 205 199 194 199 200 196 194 187 193 201 214 215 220 219 200 182 192 203 208 212 212 214 218 228 233 233 235 224 226 238 239
224 230 224 269 290 302 296 285 258 247 280 219 195 206 200 203 209 198 199 203 205 207 210 219 211 216 219 203 189 190 205 213 218 218 219 217 226 265 259 242 246 240 235 234
223 231 230 260 284 288 275 271 263 236 222 235 233 203 195 211 214 199 198 208 217 217 215 211 211 222 223 207 198 200 208 214 220 222 221 218 219 227 262 286 278 256 247 245
228 219 274 276 278 290 287 285 285 287 257 230 240 223 194 206 211 208 220 226 220 216 217 210 211 228 225 207 204 211 217 220 220 223 223 221 222 225 228 238 261 277 270 255
252 218 225 257 283 299 308 324 345 315 307 307 273 244 217 218 226 233 238 229 210 218 227 220 224 238 227 208 210 217 219 223 223 228 227 226 225 224 228 232 239 255 275 276
268 265 244 259 278 296 318 316 297 288 286 279 276 267 252 238 239 244 237 209 201 223 230 227 237 239 219 211 218 227 230 231 224 224 229 229 227 226 231 233 236 244 253 260
212 257 262 278 280 282 279 269 258 263 265 258 254 254 258 247 244 245 243 235 225 229 230 228 238 238 221 212 215 224 228 231 228 227 228 227 229 230 231 233 237 243 250 249
220 226 223 226 244 262 275 275 263 259 257 253 248 227 225 230 231 236 238 242 253 265 257 244 241 236 228 219 214 218 221 224 221 224 228 230 234 233 232 234 239 244 254 252
236 236 243 247 249 250 260 264 261 257 261 253 235 232 231 232 231 234 227 221 234 253 262 255 242 229 235 232 221 215 219 224 223 223 225 227 233 236 236 237 240 241 244 247
250 246 248 261 266 256 254 260 261 264 266 257 244 249 257 257 246 232 222 231 237 239 245 249 236 232 236 232 221 217 218 220 219 220 221 223 228 236 237 238 240 243 244 243
252 263 273 280 286 282 270 263 256 266 275 265 245 245 252 261 253 227 223 249 260 248 240 235 228 231 229 220 214 216 212 213 213 212 215 223 232 237 238 239 240 242 242 243
272 271 275 284 297 301 298 292 279 275 283 283 274 265 261 264 261 245 236 239 251 244 231 232 232 224 215 204 200 208 217 213 212 214 216 220 228 237 243 243 236 230 229 235
294 285 293 298 291 292 304 303 295 288 281 273 269 264 255 251 241 232 256 253 234 223 218 230 230 217 200 191 193 199 204 203 202 205 211 210 215 222 222 221 211 196 205 215
310 305 294 294 305 317 310 301 299 291 284 278 269 260 254 256 266 254 245 245 229 216 221 230 220 197 178 184 186 188 191 191 198 199 193 190 203 212 202 192 191 189 194 203
303 297 295 308 309 295 287 293 301 302 302 300 297 285 256 227 231 252 244 224 210 199 227 234 203 185 176 179 179 182 178 169 159 155 149 163 188 192 184 177 180 185 191 192
305 298 289 278 270 273 282 288 291 292 292 298 302 299 291 266 219 226 225 163 128 170 209 196 177 171 177 173 169 170 156 141 136 138 148 158 159 152 154 159 166 170 178 183
312 304 302 306 301 289 283 282 275 275 260 240 255 276 281 273 118 109 102 92 74 67 107 120 134 148 153 140 134 131 127 130 138 141 140 139 145 156 161 147 147 152 156 165
Height
1482 1479 1480 1482 1482 1484 1488 1491 1497 1491 1490 1481 1477 1476 1476 1476 1477 1478 1479 1480 1482 1484 1486 1488 1490 1491 1493 1495 1496 1498 1499 1500 1502 1503 1504 1505 1506 1507 1507 1508 1508 1508 1508 1508
1482 1478 1478 1480 1479 1479 1481 1483 1485 1484 1484 1475 1474 1474 1475 1475 1476 1477 1478 1479 1481 1483 1485 1486 1488 1489 1491 1493 1495 1496 1497 1498 1499 1500 1501 1502 1503 1504 1504 1504 1505 1505 1505 1505
1491 1483 1481 1488 1479 1478 1478 1477 1479 1482 1478 1473 1473 1473 1473 1473 1475 1475 1476 1478 1479 1480 1483 1485 1486 1488 1489 1491 1492 1494 1495 1496 1497 1498 1499 1500 1500 1501 1501 1501 1502 1502 1502 1502
1495 1490 1497 1483 1471 1471 1474 1474 1473 1473 1472 1471 1471 1471 1472 1472 1473 1474 1475 1476 1478 1479 1481 1483 1485 1486 1488 1489 1490 1491 1492 1493 1494 1495 1496 1497 1497 1498 1498 1499 1499 1499 1499 1499
1498 1497 1490 1478 1470 1470 1474 1475 1471 1471 1470 1471 1470 1471 1472 1472 1472 1473 1474 1475 1477 1478 1480 1481 1483 1484 1486 1487 1488 1489 1490 1491 1491 1492 1493 1494 1494 1494 1495 1496 1496 1496 1496 1496
1496 1495 1496 1479 1467 1466 1470 1477 1468 1468 1469 1469 1470 1476 1472 1470 1471 1472 1473 1474 1476 1477 1478 1479 1481 1483 1484 1485 1486 1487 1487 1488 1489 1489 1490 1491 1491 1492 1492 1493 1493 1494 1493 1493
1492 1492 1485 1470 1466 1466 1480 1477 1466 1466 1466 1468 1468 1469 1468 1469 1470 1471 1472 1473 1475 1476 1477 1478 1480 1482 1483 1484 1484 1485 1485 1486 1486 1487 1488 1488 1489 1489 1490 1490 1490 1491 1491 1490
1491 1492 1486 1466 1466 1470 1469 1464 1463 1464 1464 1466 1466 1466 1466 1467 1468 1469 1470 1472 1473 1474 1475 1477 1478 1480 1481 1481 1482 1482 1483 1483 1483 1484 1485 1485 1486 1487 1487 1487 1487 1487 1487 1487
1480 1478 1468 1466 1465 1464 1464 1463 1462 1462 1463 1464 1464 1465 1465 1466 1467 1468 1469 1470 1471 1472 1473 1474 1476 1477 1478 1479 1479 1479 1480 1480 1480 1481 1481 1482 1483 1483 1483 1484 1484 1484 1484 1484
1474 1469 1465 1464 1463 1462 1462 1461 1461 1461 1462 1462 1462 1463 1463 1464 1465 1467 1467 1469 1470 1471 1471 1472 1473 1474 1476 1476 1477 1477 1476 1476 1477 1477 1478 1479 1480 1480 1479 1480 1480 1481 1480 1480
1472 1468 1464 1462 1462 1462 1461 1461 1460 1460 1461 1461 1461 1461 1462 1463 1464 1465 1466 1467 1468 1469 1469 1470 1471 1472 1473 1474 1474 1473 1473 1473 1473 1474 1475 1476 1477 1477 1477 1477 1477 1477 1477 1477
1469 1465 1465 1462 1461 1461 1460 1459 1459 1459 1459 1459 1460 1460 1461 1461 1462 1463 1465 1465 1466 1466 1467 1468 1468 1469 1470 1470 1470 1470 1470 1470 1470 1471 1471 1472 1472 1473 1473 1474 1474 1474 1473 1473
1462 1462 1462 1461 1460 1460 1459 1458 1458 1458 1457 1457 1458 1458 1458 1459 1460 1461 1462 1463 1463 1463 1464 1465 1465 1466 1466 1466 1467 1467 1467 1467 1467 1467 1468 1469 1469 1469 1469 1470 1470 1470 1470 1469
1459 1460 1459 1458 1458 1458 1457 1457 1456 1456 1456 1456 1457 1456 1456 1457 1457 1458 1459 1460 1460 1460 1461 1461 1462 1462 1462 1463 1463 1463 1463 1463 1464 1464 1465 1465 1465 1465 1465 1465 1465 1465 1465 1465
1456 1457 1457 1457 1456 1456 1455 1455 1454 1454 1454 1454 1455 1454 1454 1455 1455 1455 1456 1457 1457 1457 1458 1458 1458 1458 1458 1458 1459 1459 1459 1460 1460 1460 1461 1461 1461 1461 1461 1461 1461 1461 1461 1461
1454 1454 1454 1454 1454 1454 1453 1453 1453 1452 1452 1452 1452 1452 1452 1452 1452 1453 1453 1454 1454 1453 1454 1454 1454 1454 1454 1454 1455 1455 1456 1456 1456 1456 1456 1456 1457 1457 1457 1457 1457 1457 1457 1457
1452 1451 1451 1451 1451 1451 1451 1451 1450 1450 1450 1450 1450 1449 1449 1449 1449 1449 1450 1450 1450 1450 1450 1450 1450 1450 1450 1450 1451 1451 1451 1451 1452 1452 1452 1452 1452 1453 1453 1453 1453 1453 1453 1453
1450 1450 1449 1449 1449 1449 1448 1448 1447 1447 1447 1447 1446 1446 1446 1446 1445 1446 1446 1446 1446 1446 1446 1446 1445 1445 1445 1446 1446 1447 1447 1447 1447 1447 1447 1448 1448 1449 1449 1449 1449 1449 1449 1449
1447 1447 1446 1446 1446 1446 1445 1445 1444 1444 1443 1443 1443 1442 1442 1442 1442 1442 1442 1442 1441 1441 1441 1441 1441 1441 1441 1441 1442 1442 1442 1443 1443 1443 1443 1443 1444 1444 1444 1444 1444 1445 1444 1444
1444 1444 1443 1443 1443 1443 1442 1442 1441 1440 1440 1439 1439 1438 1438 1438 1438 1438 1438 1437 1437 1437 1437 1437 1437 1437 1437 1437 1438 1438 1438 1438 1438 1438 1439 1439 1439 1440 1440 1440 1440 1441 1440 1440
1441 1441 1440 1440 1439 1439 1439 1438 1438 1437 1436 1436 1435 1434 1434 1435 1435 1434 1433 1433 1433 1433 1434 1434 1434 1433 1433 1433 1434 1434 1434 1435 1435 1435 1435 1435 1435 1436 1436 1436 1436 1437 1436 1436
1438 1438 1437 1437 1437 1436 1436 1435 1434 1433 1433 1432 1432 1431 1431 1431 1430 1429 1429 1429 1429 1429 1430 1430 1430 1430 1430 1430 1430 1431 1431 1431 1432 1431 1431 1431 1432 1432 1432 1433 1433 1433 1433 1433
1436 1435 1435 1435 1434 1433 1432 1432 1431 1430 1429 1429 1428 1428 1427 1427 1426 1425 1425 1425 1425 1426 1426 1426 1427 1427 1427 1427 1428 1428 1429 1429 1428 1428 1427 1428 1428 1429 1429 1430 1430 1430 1430 1430
1434 1433 1433 1433 1432 1431 1429 1428 1428 1427 1426 1425 1425 1424 1424 1423 1423 1423 1422 1422 1422 1423 1423 1424 1424 1424 1424 1424 1425 1425 1425 1425 1425 1425 1425 1425 1426 1426 1426 1427 1427 1427 1428 1427
1432 1431 1430 1430 1429 1428 1426 1425 1424 1423 1422 1422 1421 1421 1421 1421 1421 1420 1420 1420 1421 1421 1421 1422 1422 1422 1422 1422 1422 1422 1422 1423 1423 1423 1423 1424 1425 1425 1425 1425 1425 1425 1426 1426
1429 1428 1428 1427 1426 1425 1424 1422 1421 1420 1420 1419 1419 1419 1419 1419 1418 1419 1419 1419 1419 1419 1420 1420 1420 1420 1420 1420 1420 1421 1421 1421 1421 1422 1422 1423 1423 1424 1424 1424 1424 1424 1424 1424
1427 1426 1425 1424 1423 1422 1421 1420 1419 1418 1418 1417 1416 1417 1417 1417 1417 1417 1417 1417 1417 1418 1418 1418 1418 1419 1419 1420 1420 1420 1420 1420 1421 1421 1422 1422 1422 1422 1422 1422 1422 1422 1422 1422